This demonstration page uses our WeatherBlox Daily Observations layout. Learn more.

Left ArrowRight Arrow

Hourly Observations for September 24, 2015

Temp ( °F °C ) Dew Point ( °F °C ) Humidity (%) Winds ( mph kmh ) Pressure ( in mb ) Visibility ( mi km ) Precip ( " mm )
12:59 am 00:59 Mostly Cloudy 69 20.6 61 16.1 76 76 NE 13 20 30.16 1021 10 16 0.00 0.00
1:59 am 01:59 Mostly Cloudy 70 21.1 61 16.1 73 73 NNE 13 20 30.16 1021 10 16 0.00 0.00
2:59 am 02:59 Mostly Cloudy 70 21.1 61 16.1 73 73 NNE 16 26 30.15 1021 10 16 0.00 0.00
3:59 am 03:59 Mostly Cloudy 69 20.6 61 16.1 76 76 NE 15 24 30.14 1021 10 16 0.00 0.00
4:59 am 04:59 Mostly Cloudy 69 20.6 62 16.7 78 78 NE 15 24 30.14 1021 10 16 0.00 0.00
5:59 am 05:59 Partly Cloudy 69 20.6 62 16.7 78 78 NE 15 24 30.15 1021 10 16 0.00 0.00
6:59 am 06:59 Mostly Cloudy 70 21.1 62 16.7 76 76 ENE 14 22 30.16 1021 9 14 0.00 0.00
7:59 am 07:59 Mostly Cloudy 72 22.2 61 16.1 68 68 NE 17 28 30.17 1022 9 14 0.00 0.00
8:59 am 08:59 Mostly Cloudy 73 22.8 61 16.1 66 66 ENE 18 30 30.18 1022 9 14 0.00 0.00
9:59 am 09:59 Mostly Cloudy 75 23.9 61 16.1 62 62 NE 16 26 30.18 1022 10 16 0.00 0.00
10:59 am 10:59 Mostly Cloudy 76 24.4 62 16.7 62 62 ENE 14 22 30.19 1023 10 16 0.00 0.00
11:59 am 11:59 Mostly Cloudy 77 25 62 16.7 60 60 NE 18 30 30.21 1023 10 16 0.00 0.00
12:59 pm 12:59 Mostly Cloudy 78 25.6 62 16.7 58 58 ENE 15 24 30.22 1023 10 16 0.00 0.00
1:59 pm 13:59 Mostly Cloudy 76 24.4 61 16.1 60 60 ENE 13 20 30.21 1023 10 16 0.00 0.00
2:59 pm 14:59 Mostly Cloudy 77 25 61 16.1 58 58 NE 14 22 30.19 1023 10 16 0.00 0.00
3:59 pm 15:59 Mostly Cloudy 78 25.6 61 16.1 56 56 NE 18 30 30.19 1023 10 16 0.00 0.00
4:59 pm 16:59 Mostly Cloudy 76 24.4 61 16.1 60 60 NE 20 31 30.19 1022 10 16 0.00 0.00
5:59 pm 17:59 Partly Cloudy 75 23.9 60 15.6 60 60 ENE 18 30 30.19 1022 10 16 0.00 0.00
6:59 pm 18:59 Mostly Cloudy 73 22.8 59 15 62 62 NE 20 31 30.19 1022 10 16 0.00 0.00
7:59 pm 19:59 Mostly Cloudy 73 22.8 60 15.6 64 64 ENE 20 31 30.19 1022 10 16 0.00 0.00
8:59 pm 20:59 Mostly Cloudy 73 22.8 61 16.1 66 66 ENE 15 24 30.20 1023 10 16 0.00 0.00
9:59 pm 21:59 Mostly Cloudy 73 22.8 62 16.7 69 69 ENE 14 22 30.20 1023 10 16 0.00 0.00
10:59 pm 22:59 Mostly Cloudy 74 23.3 61 16.1 64 64 ENE 18 30 30.20 1023 10 16 0.00 0.00
11:59 pm 23:59 Mostly Cloudy 73 22.8 61 16.1 66 66 ENE 17 28 30.19 1022 10 16 0.00 0.00

Powered by AerisWeather